Location: Newark
(41.0400°S, 62.7845°W)
Time: 03:27:31
(UTC+00:00)

Transit 2A - Pass Details

Date: 09 December 2021
Orbit: 591 x 967 km, 66.7° (Epoch: 20 January)

Event Time Altitude Azimuth Distance (km) Brightness Sun altitude
Rises 22:09:01 0° 194° (SSW) 2,867 9.5 13.9°
Reaches altitude 10° 22:12:26 10° 166° (SSE) 1,966 8.3 13.3°
Maximum altitude 22:14:32 13° 137° (SE) 1,775 7.7 12.9°
Drops below altitude 10° 22:16:40 10° 108° (ESE) 1,996 7.7 12.5°
Sets 22:20:11 0° 80° (E) 2,948 8.4 11.9°
